Torna al catalogo

STARLINK-36419

AttivoComunicazioniSSO
NORAD 67584·PAYLOAD·🇺🇸 United States

Lanciato Jan 25, 2026 da Vandenberg Space Force Base

Loading…

Prossimi Passaggi (prossime 24 ore)

TLE

AggiornatoSource: CelesTrak SupGP

Epoca: Sep 15, 2026, 04:24 UTC

1 67584C 26016Z   26258.18381944 -.00023255  00000+0 -72194-3 0  2588
2 67584  97.2849 316.9653 0001002  87.5122  86.7261 15.33449552    14

Traccia STARLINK-36419 in tempo reale con AllMySat

Download on the App Store